Retour au catalogue

STARLINK-4358

ActifCommunicationsSSO
NORAD 53225·PAYLOAD·🇺🇸 United States

Lancé Jul 22, 2022 depuis Vandenberg Space Force Base

Loading…

Prochains Passages (prochaines 24 heures)

TLE

FraisSource: CelesTrak SupGP

Époque: Sep 14, 2026, 21:35 UTC

1 53225C 22084AN  26257.89979167 -.00010851  00000+0 -33700-3 0  2570
2 53225  97.2835 313.7280 0001675  88.0822  61.9125 15.33429570    18

Suivez STARLINK-4358 en temps réel avec AllMySat

Download on the App Store